www.srh.weather.gov   
NOAA logo - Click to go to the NOAA homepage   NWS logo
Weather Roundup
Enter Your "City, ST" or zip code   
Current Version              Previous Version:    01  02  03  04  05  06  07  08  09  10  11  12  13  14  15  16  17  18  19  20  21  22  23  24  25  26  27  28  29  30  
   31  32  33  34  35  36  37  38  39  40  41  42  43  44  45  46  47  48  49  50  51  52  53  54  55  56  57  58  59  60  
[Printable]
972
NZUS99 KSGF 301907
HRRSGF

HOURLY WEATHER
NATIONAL WEATHER SERVICE SPRINGFIELD MO
200 PM CDT THU OCT 30 2014

......SGF CWA......

CITY           SKY/WX    TMP DP  RH WIND       PRES   REMARKS
SPRINGFIELD    CLOUDY    66  46  48 W15       29.99F
JOPLIN         SUNNY     68  44  42 W13G22    30.04F
WEST PLAINS    LGT RAIN  61  38  42 S7        30.06F
ROLLA          CLOUDY    52  45  77 S12       30.00F
OSAGE BEACH    CLOUDY    54  45  71 SE9       29.99F
BRANSON        MOSUNNY   64  46  52 S10       30.04F

......SURROUNDING SGF CWA......

CITY           SKY/WX    TMP DP  RH WIND       PRES   REMARKS
CHANUTE        SUNNY     71  38  29 NW20G30   30.05F
PARSONS        SUNNY     73  39  29 NW18G30   30.06F
COFFEYVILLE    LGT RAIN  72  40  31 NW18G25   30.05F
EMPORIA        SUNNY     69  35  28 NW26G33   30.08S
GROVE OK       SUNNY     70  45  40 W9G20     30.06F
ROGERS AR      SUNNY     68  45  43 W21G26    30.05F
SILOAM SPRINGS SUNNY     70  46  43 W17G24    30.08F
HARRISON AR    CLOUDY    67  39  35 W7        30.03F
NEAR YELLVILLE PTSUNNY   63  45  51 SE6       30.04F

......KANSAS AND MISSOURI......

CITY           SKY/WX    TMP DP  RH WIND       PRES   REMARKS
KANSAS CTY INT MOSUNNY   65  39  38 NW18G26   30.01F
DOWNTOWN KC    SUNNY     68  37  32 N14G24    30.00F
COLUMBIA       CLOUDY    51  46  83 S12       29.98F
SEDALIA        MOSUNNY   60  49  66 SW8       30.00F
ST JOSEPH      SUNNY     67  40  37 N18G29    30.02F
ST LOUIS       PTSUNNY   59  37  44 S5        30.06F
SPIRIT OF STL  PTSUNNY   60  38  43 CALM      30.04F
KIRKSVILLE     SUNNY     61  44  53 NE5       29.98F
WICHITA        MOSUNNY   73  36  25 NW24G30   30.13F
TOPEKA         SUNNY     70  40  33 N15       30.05F
OLATHE         SUNNY     68  38  33 N16G24    30.01S

......TENNESSEE......

CITY           SKY/WX    TMP DP  RH WIND       PRES   REMARKS
MEMPHIS        MOSUNNY   69  39  33 CALM      30.09F
NASHVILLE      MOSUNNY   61  38  42 E5        30.09F

......ARKANSAS.......

CITY           SKY/WX    TMP DP  RH WIND       PRES   REMARKS
FAYETTEVILLE   MOSUNNY   68  42  38 SW13G22   30.06F
FT SMITH       MOSUNNY   71  44  37 SW12G21   30.06F
LITTLE ROCK    MOSUNNY   71  42  35 SW6       30.08F

......OKLAHOMA.......

CITY           SKY/WX    TMP DP  RH WIND       PRES   REMARKS
TULSA          MOSUNNY   73  43  33 NW9       30.07F
PONCA CITY     SUNNY     75  37  25 N21       30.11F
MCALESTER      MOSUNNY   74  48  39 SW16      30.10F
OKLAHOMA CITY  SUNNY     75  40  28 N16G22    30.13F

......IOWA............

CITY           SKY/WX    TMP DP  RH WIND       PRES   REMARKS
DES MOINES     MOSUNNY   62  38  40 N9        30.01S
QUAD CITIES    CLOUDY    50  37  61 S7        30.05F

......ILLINOIS........

CITY           SKY/WX    TMP DP  RH WIND       PRES   REMARKS
QUINCY         PTSUNNY   55  41  59 MISG      30.01R
CHICAGO        CLOUDY    49  34  56 SW10      30.07F




National Weather Service
Disclaimer
Last Modified: August 31, 2005
Privacy Policy